Hourly Data Report for February 02, 2004

TORONTO CITY
ONTARIO

43°40'00.000" N
79°24'00.000" W
112.50 m
6158355
71508
XTO

Download Data

Hourly Data (February 2004)
Hourly Data Report for February 2, 2004
TIME
LST
Temp Definition
°C
Dew Point Definition
°C
Rel Hum Definition
%
Precip. Amount Definition
mm

Wind Dir Definition
10's deg

Wind Spd Definition
km/h
Visibility Definition
km
Stn Press Definition
kPa
Hmdx Definition


Wind Chill Definition


Weather Definition


00:00 -5.8 -10.2 71   LegendMM LegendMM LegendMM 102.00     LegendNANA
01:00 -5.7 -10.0 72   LegendMM LegendMM LegendMM 101.99     LegendNANA
02:00 -6.1 -10.4 72   LegendMM LegendMM LegendMM 101.98     LegendNANA
03:00 -6.6 -10.4 74   LegendMM LegendMM LegendMM 101.97     LegendNANA
04:00 -6.2 -10.4 72   LegendMM LegendMM LegendMM 101.95     LegendNANA
05:00 -6.5 -10.4 74   LegendMM LegendMM LegendMM 101.94     LegendNANA
06:00 -5.9 -9.5 76   LegendMM LegendMM LegendMM 101.93     LegendNANA
07:00 -5.7 -8.5 81   LegendMM LegendMM LegendMM 101.92     LegendNANA
08:00 -4.3 -6.6 84   LegendMM LegendMM LegendMM 101.91     LegendNANA
09:00 -3.0 -4.7 88   LegendMM LegendMM LegendMM 101.91     LegendNANA
10:00 -2.5 -3.7 91   LegendMM LegendMM LegendMM 101.89     LegendNANA
11:00 -2.2 -3.4 91   LegendMM LegendMM LegendMM 101.83     LegendNANA
12:00 -1.7 -3.2 89   LegendMM LegendMM LegendMM 101.76     LegendNANA
13:00 -1.0 -2.9 87   LegendMM LegendMM LegendMM 101.64     LegendNANA
14:00 0.0 -2.4 84   LegendMM LegendMM LegendMM 101.50     LegendNANA
15:00 -0.4 -2.6 85   LegendMM LegendMM LegendMM 101.42     LegendNANA
16:00 -0.7 -2.4 88   LegendMM LegendMM LegendMM 101.39     LegendNANA
17:00 -0.9 -2.5 89   LegendMM LegendMM LegendMM 101.30     LegendNANA
18:00 -0.7 -2.1 90   LegendMM LegendMM LegendMM 101.22     LegendNANA
19:00 -0.5 -1.9 90   LegendMM LegendMM LegendMM 101.17     LegendNANA
20:00 -0.3 -1.7 90   LegendMM LegendMM LegendMM 101.05     LegendNANA
21:00 -0.3 -1.5 92   LegendMM LegendMM LegendMM 100.93     LegendNANA
22:00 0.1 -1.0 92   LegendMM LegendMM LegendMM 100.79     LegendNANA
23:00 0.7 -0.8 90   LegendMM LegendMM LegendMM 100.65     LegendNANA

Notes on Data Quality.

Legend

  • E = Estimated
  • M = Missing
  • NA = Not Available*
  • [empty] = Indicates an unobserved value
Date modified: